BEIDOU I2-S

Last updated on Tue Apr 02 2019 03:15:24 GMT+0000 (Coordinated Universal Time)

1 40938U 15053A 19091.01102867 -.00000103 00000-0 00000+0 0 9997 2 40938 53.2699 289.2714 0047619 179.9135 180.0457 1.00282292 12942

Satellite not in orbit

BEIDOU I2-S